ETH27MD HECA-MDPC

Flight info

Callsign ETH27MD
Flight time N/A
Altitude 32000
Route CVO L617 NABSI M872 METRU UP868 ARLOS DCT ALIXA DCT RUDOG DCT MALTI DCT OMENI UL874 DIMAO UZ888 BABOR UA31 BNA UZ444 DAHRA/N0488F340 UA411 MOS UM744 CARBO M744 GOLFO/N0493F330 T100 AMPIR/N0490F340 T100 TAVSI/N0495F330 T100 ORTOP/N0490F340 DCT BAROK DCT NARTA DCT MANOX/M084F340 DCT 37N019W 37N023W 35N029W/M084F360 35N033W 33N039W 31N045W 29N051W 27N057W/M084F380 DCT FIVZE M597 KEEKA/N0483F380 M597 BETIR BETIR1W
Aircraft B77W/H-SDE1E2E3FGHIJ2J3J4J5M1RWXYZ/LB1D1

Departure

Time 2026-05-01 09:01
Airport Cairo International Airport (HECA)

Arrival

Time N/A
Airport Punta Cana International Airport (MDPC)
Time Latitude Longitude Altitude Speed Heading
2026-05-01 07:38 30.11071 31.40233 395 ft 0 kts 15°
2026-05-01 08:47 30.11062 31.40230 393 ft 2 kts 18°
2026-05-01 08:47 30.11046 31.40223 393 ft 2 kts 27°
2026-05-01 08:48 30.11033 31.40213 393 ft 2 kts 41°
2026-05-01 08:48 30.11022 31.40200 393 ft 2 kts 55°
2026-05-01 08:48 30.11015 31.40185 393 ft 2 kts 68°
2026-05-01 08:48 30.11010 31.40167 393 ft 2 kts 81°
2026-05-01 08:49 30.11009 31.40148 393 ft 2 kts 95°
2026-05-01 08:49 30.11012 31.40132 393 ft 0 kts 107°
2026-05-01 08:49 30.11012 31.40129 393 ft 0 kts 108°
2026-05-01 08:51 30.11012 31.40131 393 ft 1 kts 107°
2026-05-01 08:51 30.11007 31.40150 393 ft 4 kts 107°
2026-05-01 08:52 30.10996 31.40189 393 ft 6 kts 107°
2026-05-01 08:52 30.10981 31.40246 393 ft 8 kts 107°
2026-05-01 08:52 30.10962 31.40315 393 ft 8 kts 107°
2026-05-01 08:52 30.10946 31.40374 393 ft 7 kts 107°
2026-05-01 08:53 30.10933 31.40422 393 ft 6 kts 107°
2026-05-01 08:53 30.10909 31.40452 393 ft 5 kts 159°
2026-05-01 08:53 30.10872 31.40450 393 ft 6 kts 195°
2026-05-01 08:53 30.10836 31.40419 393 ft 7 kts 227°
2026-05-01 08:54 30.10796 31.40370 393 ft 9 kts 227°
2026-05-01 08:54 30.10753 31.40314 393 ft 10 kts 229°
2026-05-01 08:54 30.10705 31.40250 393 ft 11 kts 229°
2026-05-01 08:54 30.10653 31.40181 393 ft 12 kts 229°
2026-05-01 08:55 30.10597 31.40107 393 ft 13 kts 228°
2026-05-01 08:55 30.10537 31.40029 393 ft 13 kts 227°
2026-05-01 08:55 30.10473 31.39945 393 ft 14 kts 231°
2026-05-01 08:55 30.10410 31.39859 393 ft 14 kts 229°
2026-05-01 08:56 30.10353 31.39782 393 ft 11 kts 229°
2026-05-01 08:56 30.10305 31.39720 393 ft 9 kts 229°
2026-05-01 08:56 30.10267 31.39668 393 ft 7 kts 229°
2026-05-01 08:56 30.10234 31.39625 393 ft 8 kts 229°
2026-05-01 08:57 30.10198 31.39588 393 ft 6 kts 206°
2026-05-01 08:57 30.10165 31.39578 393 ft 5 kts 178°
2026-05-01 08:57 30.10127 31.39594 393 ft 7 kts 147°
2026-05-01 08:57 30.10083 31.39637 393 ft 8 kts 139°
2026-05-01 08:58 30.10044 31.39676 393 ft 6 kts 138°
2026-05-01 08:58 30.10017 31.39718 393 ft 9 kts 115°
2026-05-01 08:58 30.10004 31.39788 393 ft 8 kts 97°
2026-05-01 08:58 30.10002 31.39845 393 ft 6 kts 82°
2026-05-01 08:59 30.10017 31.39881 394 ft 4 kts 49°
2026-05-01 08:59 30.10036 31.39905 394 ft 8 kts 46°
2026-05-01 08:59 30.10164 31.40075 394 ft 48 kts 49°
2026-05-01 08:59 30.10470 31.40484 394 ft 85 kts 49°
2026-05-01 09:00 30.10934 31.41099 395 ft 117 kts 48°
2026-05-01 09:00 30.11541 31.41896 395 ft 147 kts 49°
2026-05-01 09:00 30.12268 31.42861 399 ft 171 kts 48°
2026-05-01 09:00 30.13059 31.43922 565 ft 175 kts 49°
2026-05-01 09:01 30.13793 31.45027 817 ft 176 kts 43°
2026-05-01 09:01 30.14887 31.45786 912 ft 202 kts 13°
2026-05-01 09:01 30.16357 31.45824 1248 ft 223 kts 347°
2026-05-01 09:01 30.17814 31.45052 1616 ft 240 kts 323°
2026-05-01 09:02 30.19117 31.43780 1979 ft 250 kts 319°
2026-05-01 09:02 30.20430 31.42421 2527 ft 256 kts 319°
2026-05-01 09:02 30.21753 31.41049 3292 ft 256 kts 319°
2026-05-01 09:02 30.23073 31.39679 4009 ft 258 kts 319°
2026-05-01 09:03 30.24283 31.38164 4657 ft 262 kts 302°
2026-05-01 09:03 30.25093 31.36289 5366 ft 264 kts 295°
2026-05-01 09:03 30.25820 31.34353 6017 ft 266 kts 294°
2026-05-01 09:03 30.26546 31.32390 6686 ft 268 kts 294°
2026-05-01 09:04 30.27284 31.30420 7347 ft 270 kts 294°
2026-05-01 09:04 30.28033 31.28433 8045 ft 269 kts 295°
2026-05-01 09:04 30.28784 31.26455 8670 ft 272 kts 294°
2026-05-01 09:04 30.29546 31.24465 9292 ft 274 kts 294°
2026-05-01 09:05 30.30312 31.22468 9944 ft 274 kts 295°
2026-05-01 09:05 30.31087 31.20454 10404 ft 282 kts 295°
2026-05-01 09:05 30.31908 31.18327 10648 ft 298 kts 295°
2026-05-01 09:05 30.32776 31.16082 10891 ft 315 kts 294°
2026-05-01 09:06 30.33702 31.13695 11111 ft 332 kts 295°
2026-05-01 09:06 30.34733 31.11255 11356 ft 347 kts 304°
2026-05-01 09:06 30.36419 31.09190 11600 ft 361 kts 318°
2026-05-01 09:06 30.38331 31.07282 12212 ft 366 kts 318°
2026-05-01 09:07 30.40232 31.05333 12923 ft 367 kts 317°
2026-05-01 09:07 30.42113 31.03356 13648 ft 367 kts 316°
2026-05-01 09:07 30.43992 31.01358 14288 ft 370 kts 316°
2026-05-01 09:07 30.45902 30.99311 14827 ft 375 kts 316°
2026-05-01 09:08 30.47819 30.97248 15440 ft 378 kts 316°
2026-05-01 09:08 30.49742 30.95170 16082 ft 381 kts 316°
2026-05-01 09:08 30.51685 30.93069 16669 ft 384 kts 316°
2026-05-01 09:08 30.53641 30.90949 17201 ft 388 kts 315°
2026-05-01 09:09 30.55613 30.88811 17752 ft 391 kts 316°
2026-05-01 09:09 30.57606 30.86648 18307 ft 394 kts 315°
2026-05-01 09:09 30.59617 30.84463 18950 ft 395 kts 315°
2026-05-01 09:09 30.61623 30.82281 19494 ft 398 kts 315°
2026-05-01 09:10 30.63641 30.80086 19980 ft 401 kts 315°
2026-05-01 09:10 30.65679 30.77867 20527 ft 403 kts 315°
2026-05-01 09:10 30.67721 30.75643 21055 ft 405 kts 315°
2026-05-01 09:10 30.69782 30.73397 21516 ft 408 kts 315°
2026-05-01 09:11 30.71854 30.71136 21970 ft 411 kts 315°
2026-05-01 09:11 30.73956 30.68842 22511 ft 411 kts 315°
2026-05-01 09:11 30.76041 30.66565 22968 ft 414 kts 314°
2026-05-01 09:11 30.78141 30.64270 23385 ft 417 kts 314°
2026-05-01 09:12 30.80268 30.61944 23813 ft 419 kts 314°
2026-05-01 09:12 30.82401 30.59609 24264 ft 421 kts 314°
2026-05-01 09:12 30.84244 30.57592 24605 ft 424 kts 314°
2026-05-01 09:12 30.85962 30.55710 24949 ft 425 kts 314°
2026-05-01 09:13 30.88136 30.53327 25384 ft 427 kts 314°
2026-05-01 09:13 30.90295 30.50959 25782 ft 429 kts 314°
2026-05-01 09:13 30.92472 30.48569 26173 ft 431 kts 314°
2026-05-01 09:13 30.94652 30.46175 26571 ft 433 kts 314°
2026-05-01 09:14 30.96645 30.43985 26926 ft 435 kts 314°
2026-05-01 09:14 30.98848 30.41563 27293 ft 437 kts 314°
2026-05-01 09:14 31.01053 30.39136 27695 ft 439 kts 314°
2026-05-01 09:14 31.03283 30.36680 28097 ft 440 kts 314°
2026-05-01 09:15 31.05505 30.34212 28478 ft 442 kts 311°
2026-05-01 09:15 31.07500 30.31511 28879 ft 441 kts 305°
2026-05-01 09:15 31.09153 30.28513 29278 ft 442 kts 297°
2026-05-01 09:15 31.10422 30.25274 29816 ft 440 kts 290°
2026-05-01 09:16 31.11390 30.21935 30465 ft 435 kts 288°
2026-05-01 09:16 31.12313 30.18614 31117 ft 431 kts 288°
2026-05-01 09:16 31.13228 30.15303 31713 ft 427 kts 288°
2026-05-01 09:17 31.15035 30.08717 32016 ft 430 kts 288°
2026-05-01 09:17 31.17730 29.98824 32024 ft 428 kts 288°
2026-05-01 09:18 31.22052 29.89774 32025 ft 430 kts 304°
2026-05-01 09:19 31.27309 29.81374 32028 ft 429 kts 304°
2026-05-01 09:20 31.32582 29.72918 32020 ft 429 kts 304°
2026-05-01 09:21 31.39572 29.61676 32017 ft 429 kts 304°
2026-05-01 09:21 31.44827 29.53199 32020 ft 430 kts 304°
2026-05-01 09:22 31.51807 29.41914 32014 ft 429 kts 304°
2026-05-01 09:23 31.57053 29.33409 32028 ft 430 kts 303°
2026-05-01 09:24 31.62273 29.24913 32032 ft 429 kts 303°
2026-05-01 09:25 31.69257 29.13502 32033 ft 429 kts 303°
2026-05-01 09:26 31.74460 29.04981 32032 ft 429 kts 303°
2026-05-01 09:26 31.79654 28.96461 32029 ft 428 kts 303°
2026-05-01 09:27 31.84808 28.87987 32028 ft 428 kts 303°
2026-05-01 09:28 31.88250 28.82317 32026 ft 428 kts 303°
2026-05-01 09:28 31.91700 28.76626 32027 ft 429 kts 303°
2026-05-01 09:29 31.96897 28.68037 32026 ft 430 kts 303°
2026-05-01 09:30 32.02069 28.59471 32021 ft 428 kts 303°
2026-05-01 09:30 32.07239 28.50888 32022 ft 428 kts 303°
2026-05-01 09:31 32.10684 28.45158 32024 ft 428 kts 303°
2026-05-01 09:32 32.15789 28.36651 32023 ft 429 kts 303°
2026-05-01 09:32 32.20956 28.28023 32039 ft 429 kts 302°
2026-05-01 09:33 32.24297 28.22432 32037 ft 428 kts 302°
2026-05-01 09:34 32.29426 28.13834 32037 ft 427 kts 303°
2026-05-01 09:34 32.34495 28.05317 32034 ft 427 kts 303°
2026-05-01 09:35 32.39608 27.96706 32033 ft 428 kts 303°
2026-05-01 09:36 32.43033 27.90928 32028 ft 428 kts 303°
2026-05-01 09:36 32.46440 27.85171 32032 ft 432 kts 302°
2026-05-01 09:37 32.49871 27.79365 32028 ft 430 kts 303°
2026-05-01 09:37 32.55028 27.70622 32029 ft 431 kts 302°
2026-05-01 09:38 32.60120 27.61967 32026 ft 430 kts 302°
2026-05-01 09:39 32.65254 27.53222 32025 ft 431 kts 302°
2026-05-01 09:39 32.68675 27.47384 32025 ft 430 kts 302°
2026-05-01 09:40 32.73778 27.38647 32022 ft 430 kts 302°
2026-05-01 09:41 32.77204 27.32760 32037 ft 431 kts 302°
2026-05-01 09:41 32.82253 27.24070 32034 ft 430 kts 302°
2026-05-01 09:42 32.85638 27.18233 32033 ft 430 kts 302°
2026-05-01 09:43 32.92360 27.06614 32032 ft 430 kts 302°
2026-05-01 09:43 32.95740 27.00758 32028 ft 429 kts 302°
2026-05-01 09:44 33.00823 26.91923 32028 ft 430 kts 302°
2026-05-01 09:45 33.04197 26.86042 32028 ft 431 kts 302°
2026-05-01 09:45 33.09206 26.77293 32020 ft 431 kts 302°
2026-05-01 09:46 33.12630 26.71299 32022 ft 430 kts 302°
2026-05-01 09:46 33.15990 26.65411 32019 ft 429 kts 302°
2026-05-01 09:47 33.19332 26.59542 32011 ft 429 kts 302°
2026-05-01 09:47 33.22675 26.53665 32014 ft 429 kts 302°
2026-05-01 09:48 33.25979 26.47845 32016 ft 429 kts 302°
2026-05-01 09:48 33.29318 26.41956 32005 ft 429 kts 302°
2026-05-01 09:49 33.32667 26.36038 32009 ft 432 kts 302°
2026-05-01 09:49 33.36024 26.30097 32029 ft 431 kts 301°
2026-05-01 09:50 33.39374 26.24160 32033 ft 431 kts 301°
2026-05-01 09:50 33.42726 26.18208 32035 ft 431 kts 301°
2026-05-01 09:51 33.46010 26.12369 32034 ft 431 kts 301°
2026-05-01 09:51 33.49355 26.06410 32031 ft 431 kts 301°
2026-05-01 09:52 33.52691 26.00460 32033 ft 431 kts 301°
2026-05-01 09:52 33.56029 25.94495 32030 ft 431 kts 301°
2026-05-01 09:53 33.59372 25.88511 32030 ft 432 kts 301°
2026-05-01 09:53 33.62699 25.82546 32020 ft 431 kts 301°
2026-05-01 09:54 33.66047 25.76534 32006 ft 432 kts 301°
2026-05-01 09:54 33.69373 25.70553 32003 ft 432 kts 301°
2026-05-01 09:55 33.72712 25.64536 32002 ft 433 kts 301°
2026-05-01 09:55 33.76037 25.58536 32001 ft 433 kts 301°
2026-05-01 09:56 33.79356 25.52536 32000 ft 433 kts 301°
2026-05-01 09:56 33.82698 25.46486 31999 ft 433 kts 301°
2026-05-01 09:57 33.85963 25.40564 31999 ft 432 kts 301°
2026-05-01 09:57 33.89285 25.34531 31997 ft 433 kts 301°
2026-05-01 09:58 33.92601 25.28496 32011 ft 432 kts 301°
2026-05-01 09:58 33.95917 25.22453 32010 ft 431 kts 301°
2026-05-01 09:59 33.99132 25.16546 32001 ft 430 kts 298°
2026-05-01 09:59 34.01500 25.09944 32009 ft 429 kts 289°
2026-05-01 10:00 34.03546 25.03186 32009 ft 429 kts 289°
2026-05-01 10:00 34.05541 24.96558 32005 ft 428 kts 289°
2026-05-01 10:01 34.07572 24.89787 32007 ft 430 kts 289°
2026-05-01 10:01 34.09615 24.82955 32006 ft 430 kts 289°
2026-05-01 10:02 34.11664 24.76083 32003 ft 431 kts 289°
2026-05-01 10:02 34.13682 24.69301 32004 ft 431 kts 289°
2026-05-01 10:03 34.15700 24.62502 32011 ft 431 kts 289°
2026-05-01 10:03 34.17718 24.55683 32002 ft 431 kts 289°
2026-05-01 10:04 34.19744 24.48823 32005 ft 431 kts 289°
2026-05-01 10:04 34.21751 24.42015 32002 ft 432 kts 289°
2026-05-01 10:05 34.23754 24.35200 32003 ft 432 kts 289°
2026-05-01 10:05 34.25762 24.28353 32017 ft 432 kts 288°
2026-05-01 10:06 34.27760 24.21524 32013 ft 432 kts 288°
2026-05-01 10:06 34.29748 24.14714 32012 ft 431 kts 288°
2026-05-01 10:07 34.31740 24.07872 32013 ft 431 kts 289°
2026-05-01 10:07 34.33694 24.01146 32010 ft 432 kts 289°
2026-05-01 10:08 34.36655 23.90926 32009 ft 430 kts 289°
2026-05-01 10:09 34.38630 23.84084 32008 ft 432 kts 288°
2026-05-01 10:09 34.40597 23.77256 32008 ft 430 kts 289°
2026-05-01 10:10 34.42560 23.70427 32007 ft 431 kts 289°
2026-05-01 10:10 34.45499 23.60171 32005 ft 431 kts 289°
2026-05-01 10:11 34.47416 23.53459 32003 ft 431 kts 289°
2026-05-01 10:11 34.49366 23.46617 32000 ft 430 kts 288°
2026-05-01 10:12 34.50989 23.40910 31998 ft 430 kts 289°
2026-05-01 10:13 34.54192 23.29614 32014 ft 431 kts 288°
2026-05-01 10:13 34.56125 23.22773 32010 ft 431 kts 288°
2026-05-01 10:14 34.59020 23.12497 32001 ft 430 kts 288°
2026-05-01 10:14 34.60911 23.05764 31994 ft 430 kts 288°
2026-05-01 10:15 34.62828 22.98937 31982 ft 429 kts 289°
2026-05-01 10:15 34.65269 22.92330 31984 ft 430 kts 293°
2026-05-01 10:16 34.67776 22.85743 31988 ft 430 kts 293°
2026-05-01 10:17 34.71486 22.75839 31984 ft 431 kts 293°
2026-05-01 10:17 34.75168 22.65917 31979 ft 430 kts 293°
2026-05-01 10:18 34.78789 22.56107 31978 ft 430 kts 293°
2026-05-01 10:19 34.81224 22.49486 31978 ft 432 kts 293°
2026-05-01 10:19 34.83634 22.42921 31977 ft 431 kts 293°
2026-05-01 10:20 34.87281 22.32956 31998 ft 431 kts 292°
2026-05-01 10:20 34.89740 22.26220 32001 ft 431 kts 292°
2026-05-01 10:21 34.93416 22.16121 32007 ft 432 kts 292°
2026-05-01 10:22 34.97049 22.06110 32004 ft 432 kts 292°
2026-05-01 10:23 35.00708 21.95993 32006 ft 432 kts 292°
2026-05-01 10:23 35.04309 21.86009 32000 ft 432 kts 292°
2026-05-01 10:24 35.09154 21.72521 31995 ft 433 kts 292°
2026-05-01 10:25 35.13988 21.59010 31997 ft 433 kts 292°
2026-05-01 10:26 35.16389 21.52276 31993 ft 433 kts 292°
2026-05-01 10:27 35.21198 21.38747 31990 ft 434 kts 292°
2026-05-01 10:28 35.24794 21.28591 31996 ft 435 kts 291°
2026-05-01 10:28 35.28389 21.18404 31997 ft 435 kts 292°
2026-05-01 10:29 35.31993 21.08160 31991 ft 435 kts 291°
2026-05-01 10:30 35.36822 20.94379 31994 ft 435 kts 292°
2026-05-01 10:31 35.41684 20.80442 31993 ft 434 kts 291°
2026-05-01 10:32 35.45299 20.70042 31994 ft 434 kts 291°
2026-05-01 10:33 35.50071 20.56255 31995 ft 434 kts 291°
2026-05-01 10:34 35.53676 20.45800 32003 ft 434 kts 291°
2026-05-01 10:34 35.56056 20.38878 32001 ft 433 kts 291°
2026-05-01 10:35 35.59600 20.28453 32002 ft 433 kts 288°
2026-05-01 10:35 35.60585 20.21188 32010 ft 434 kts 271°
2026-05-01 10:36 35.60172 20.10068 32007 ft 434 kts 269°
2026-05-01 10:37 35.59834 20.02671 32007 ft 434 kts 269°
2026-05-01 10:37 35.59299 19.91568 32007 ft 436 kts 269°
2026-05-01 10:38 35.58932 19.84186 32004 ft 435 kts 268°
2026-05-01 10:38 35.58556 19.76757 32001 ft 436 kts 269°
2026-05-01 10:39 35.58175 19.69338 32002 ft 435 kts 269°
2026-05-01 10:39 35.57789 19.61921 31998 ft 436 kts 269°
2026-05-01 10:40 35.57399 19.54523 31999 ft 435 kts 269°
2026-05-01 10:40 35.57001 19.47066 31996 ft 436 kts 269°
2026-05-01 10:41 35.56599 19.39616 31993 ft 435 kts 269°
2026-05-01 10:42 35.55990 19.28487 32003 ft 436 kts 268°
2026-05-01 10:42 35.55577 19.21041 32000 ft 436 kts 268°
2026-05-01 10:43 35.55161 19.13629 32001 ft 438 kts 268°
2026-05-01 10:43 35.54739 19.06199 32000 ft 438 kts 268°
2026-05-01 10:44 35.54312 18.98757 31998 ft 438 kts 268°
2026-05-01 10:44 35.53882 18.91348 31995 ft 437 kts 268°
2026-05-01 10:45 35.53448 18.83929 32002 ft 437 kts 269°
2026-05-01 10:45 35.53009 18.76525 32002 ft 438 kts 269°
2026-05-01 10:46 35.52564 18.69083 31997 ft 437 kts 269°
2026-05-01 10:46 35.52116 18.61679 31990 ft 437 kts 269°
2026-05-01 10:47 35.51682 18.54573 31990 ft 437 kts 269°
2026-05-01 10:47 35.51225 18.47153 31985 ft 437 kts 269°
2026-05-01 10:48 35.50763 18.39741 31988 ft 437 kts 269°
2026-05-01 10:48 35.50296 18.32318 31991 ft 438 kts 268°
2026-05-01 10:49 35.49825 18.24908 31987 ft 437 kts 268°
2026-05-01 10:49 35.49348 18.17476 31990 ft 438 kts 268°
2026-05-01 10:50 35.48868 18.10050 31984 ft 439 kts 268°
2026-05-01 10:50 35.48383 18.02638 31981 ft 439 kts 268°
2026-05-01 10:51 35.47890 17.95181 31985 ft 438 kts 268°
2026-05-01 10:51 35.47396 17.87764 31988 ft 440 kts 268°
2026-05-01 10:52 35.46897 17.80335 31990 ft 440 kts 269°
2026-05-01 10:52 35.46391 17.72883 31992 ft 441 kts 268°
2026-05-01 10:53 35.45878 17.65395 31989 ft 440 kts 268°
2026-05-01 10:53 35.45363 17.57948 31989 ft 440 kts 269°
2026-05-01 10:54 35.44842 17.50473 31990 ft 440 kts 269°
2026-05-01 10:54 35.44313 17.42962 31987 ft 440 kts 269°
2026-05-01 10:55 35.43784 17.35516 31991 ft 440 kts 269°
2026-05-01 10:55 35.43556 17.28054 31999 ft 437 kts 278°
2026-05-01 10:56 35.44647 17.20795 31998 ft 435 kts 283°
2026-05-01 10:56 35.45853 17.13519 31996 ft 435 kts 282°
2026-05-01 10:57 35.47036 17.06269 31997 ft 435 kts 283°
2026-05-01 10:57 35.48210 16.99013 31994 ft 435 kts 282°
2026-05-01 10:58 35.49378 16.91738 31994 ft 435 kts 282°
2026-05-01 10:58 35.50538 16.84476 31995 ft 435 kts 282°
2026-05-01 10:59 35.51695 16.77204 31993 ft 436 kts 282°
2026-05-01 10:59 35.52852 16.69888 31992 ft 436 kts 282°
2026-05-01 11:00 35.54002 16.62596 31995 ft 436 kts 283°
2026-05-01 11:00 35.55146 16.55304 31989 ft 436 kts 282°
2026-05-01 11:01 35.56289 16.47994 31983 ft 437 kts 282°
2026-05-01 11:01 35.57428 16.40672 31985 ft 436 kts 283°
2026-05-01 11:02 35.58564 16.33347 31988 ft 436 kts 282°
2026-05-01 11:02 35.59694 16.26020 31996 ft 437 kts 282°
2026-05-01 11:03 35.60816 16.18725 31990 ft 437 kts 282°
2026-05-01 11:03 35.61938 16.11392 31989 ft 436 kts 282°
2026-05-01 11:04 35.63050 16.04098 31984 ft 437 kts 282°
2026-05-01 11:04 35.64162 15.96765 31984 ft 437 kts 282°
2026-05-01 11:05 35.65274 15.89412 31983 ft 439 kts 282°
2026-05-01 11:05 35.66378 15.82072 31981 ft 437 kts 282°
2026-05-01 11:06 35.67477 15.74736 31979 ft 438 kts 282°
2026-05-01 11:06 35.68575 15.67369 31979 ft 437 kts 282°
2026-05-01 11:07 35.70208 15.56364 31980 ft 437 kts 282°
2026-05-01 11:07 35.71291 15.49027 31978 ft 437 kts 282°
2026-05-01 11:08 35.72367 15.41699 31975 ft 437 kts 282°
2026-05-01 11:09 35.73985 15.30621 31993 ft 439 kts 282°
2026-05-01 11:09 35.75053 15.23270 31989 ft 438 kts 282°
2026-05-01 11:10 35.76651 15.12211 31985 ft 439 kts 282°
2026-05-01 11:10 35.77712 15.04823 31984 ft 439 kts 282°
2026-05-01 11:11 35.78771 14.97418 31984 ft 440 kts 282°
2026-05-01 11:11 35.79820 14.90049 31983 ft 440 kts 282°
2026-05-01 11:12 35.80868 14.82649 31981 ft 439 kts 282°
2026-05-01 11:12 35.81910 14.75263 31980 ft 439 kts 282°
2026-05-01 11:13 35.82946 14.67886 31979 ft 439 kts 282°
2026-05-01 11:13 35.83983 14.60466 31978 ft 439 kts 282°
2026-05-01 11:14 35.85012 14.53065 31977 ft 439 kts 282°
2026-05-01 11:14 35.85903 14.45626 31980 ft 442 kts 278°
2026-05-01 11:15 35.86464 14.38061 31974 ft 442 kts 277°
2026-05-01 11:15 35.87013 14.30511 31986 ft 441 kts 277°
2026-05-01 11:16 35.87555 14.22990 31986 ft 441 kts 277°
2026-05-01 11:16 35.88092 14.15492 31983 ft 441 kts 277°
2026-05-01 11:17 35.88627 14.07950 31986 ft 442 kts 277°
2026-05-01 11:17 35.89158 14.00398 31984 ft 442 kts 277°
2026-05-01 11:18 35.89682 13.92878 31981 ft 444 kts 277°
2026-05-01 11:18 35.90208 13.85254 31982 ft 444 kts 277°
2026-05-01 11:19 35.90726 13.77684 31981 ft 443 kts 277°
2026-05-01 11:19 35.91238 13.70135 31981 ft 444 kts 276°
2026-05-01 11:20 35.91744 13.62597 31981 ft 443 kts 277°
2026-05-01 11:20 35.92249 13.54999 31979 ft 444 kts 276°
2026-05-01 11:21 35.92745 13.47461 31978 ft 442 kts 276°
2026-05-01 11:21 35.93237 13.39934 31977 ft 443 kts 276°
2026-05-01 11:22 35.93724 13.32383 31990 ft 444 kts 276°
2026-05-01 11:22 35.94210 13.24800 31999 ft 444 kts 276°
2026-05-01 11:23 35.94691 13.17195 32001 ft 445 kts 276°
2026-05-01 11:23 35.95165 13.09636 32006 ft 445 kts 276°
2026-05-01 11:24 35.95638 13.02019 32005 ft 445 kts 276°
2026-05-01 11:25 35.96334 12.90645 32004 ft 446 kts 276°
2026-05-01 11:25 35.97021 12.79263 32004 ft 445 kts 276°
2026-05-01 11:26 35.97700 12.67812 32002 ft 447 kts 276°
2026-05-01 11:27 35.98146 12.60204 32001 ft 446 kts 275°
2026-05-01 11:27 35.98586 12.52605 32001 ft 446 kts 275°
2026-05-01 11:28 35.99024 12.44961 32002 ft 447 kts 275°
2026-05-01 11:28 35.99456 12.37328 31999 ft 448 kts 275°
2026-05-01 11:29 36.00099 12.25806 32011 ft 448 kts 275°
2026-05-01 11:30 36.00734 12.14236 32009 ft 448 kts 275°
2026-05-01 11:30 36.01148 12.06584 32008 ft 448 kts 275°
2026-05-01 11:31 36.01557 11.98916 32006 ft 449 kts 275°
2026-05-01 11:31 36.01963 11.91218 32006 ft 449 kts 275°
2026-05-01 11:32 36.02364 11.83531 32006 ft 450 kts 275°
2026-05-01 11:32 36.02759 11.75852 32005 ft 449 kts 275°
2026-05-01 11:33 36.03151 11.68158 32004 ft 450 kts 275°
2026-05-01 11:33 36.03537 11.60467 32006 ft 450 kts 274°
2026-05-01 11:34 36.03918 11.52775 32000 ft 450 kts 274°
2026-05-01 11:34 36.04245 11.45095 32001 ft 451 kts 274°
2026-05-01 11:35 36.04501 11.37357 32000 ft 450 kts 274°
2026-05-01 11:35 36.04759 11.29612 32007 ft 451 kts 273°
2026-05-01 11:36 36.05019 11.21894 32009 ft 451 kts 273°
2026-05-01 11:36 36.05276 11.14139 32010 ft 451 kts 273°
2026-05-01 11:37 36.05526 11.06445 32009 ft 450 kts 273°
2026-05-01 11:37 36.05772 10.98742 32008 ft 451 kts 273°
2026-05-01 11:38 36.06014 10.91027 32006 ft 451 kts 273°
2026-05-01 11:38 36.06252 10.83267 32008 ft 451 kts 273°
2026-05-01 11:39 36.06483 10.75578 32006 ft 451 kts 273°
2026-05-01 11:39 36.06709 10.67885 32004 ft 450 kts 273°
2026-05-01 11:40 36.06932 10.60128 32002 ft 449 kts 273°
2026-05-01 11:40 36.07148 10.52442 32001 ft 449 kts 273°
2026-05-01 11:41 36.07444 10.44775 31997 ft 449 kts 278°
2026-05-01 11:41 36.09016 10.37366 32002 ft 450 kts 288°
2026-05-01 11:42 36.10991 10.30020 32013 ft 450 kts 287°
2026-05-01 11:42 36.12951 10.22692 32018 ft 448 kts 287°
2026-05-01 11:43 36.14892 10.15368 32020 ft 449 kts 285°
2026-05-01 11:43 36.16049 10.07758 32032 ft 449 kts 278°
2026-05-01 11:44 36.17451 9.96331 32036 ft 448 kts 278°
2026-05-01 11:44 36.18384 9.88680 32037 ft 450 kts 278°
2026-05-01 11:45 36.19317 9.80997 32046 ft 450 kts 278°
2026-05-01 11:45 36.20242 9.73331 32052 ft 450 kts 278°
2026-05-01 11:46 36.21162 9.65664 32054 ft 450 kts 278°
2026-05-01 11:46 36.22078 9.57998 32050 ft 451 kts 278°
2026-05-01 11:47 36.22992 9.50297 32055 ft 452 kts 278°
2026-05-01 11:47 36.23908 9.42540 32183 ft 458 kts 278°
2026-05-01 11:48 36.24366 9.38644 32597 ft 457 kts 278°
2026-05-01 11:48 36.24821 9.34762 33007 ft 456 kts 277°
2026-05-01 11:48 36.25280 9.30865 33485 ft 454 kts 278°
2026-05-01 11:48 36.25699 9.28133 33828 ft 452 kts 281°
2026-05-01 11:49 36.26173 9.25334 34040 ft 453 kts 281°
2026-05-01 11:49 36.26821 9.21515 34053 ft 454 kts 281°
2026-05-01 11:49 36.28103 9.13863 34057 ft 453 kts 281°
2026-05-01 11:50 36.29374 9.06161 34140 ft 459 kts 281°
2026-05-01 11:50 36.30699 8.98056 34201 ft 464 kts 281°
2026-05-01 11:51 36.32005 8.90015 34178 ft 462 kts 281°
2026-05-01 11:51 36.33285 8.82083 34176 ft 465 kts 281°
2026-05-01 11:52 36.34588 8.73971 34167 ft 465 kts 280°
2026-05-01 11:52 36.35963 8.65365 34172 ft 465 kts 280°
2026-05-01 11:53 36.37361 8.56571 34174 ft 464 kts 280°
2026-05-01 11:53 36.38621 8.48603 34172 ft 466 kts 280°
2026-05-01 11:54 36.39978 8.39984 34175 ft 465 kts 280°
2026-05-01 11:54 36.40681 8.31748 34187 ft 466 kts 272°
2026-05-01 11:55 36.40986 8.23552 34191 ft 464 kts 271°
2026-05-01 11:55 36.41279 8.15493 34191 ft 466 kts 271°
2026-05-01 11:56 36.41563 8.07495 34187 ft 466 kts 271°
2026-05-01 11:56 36.41843 7.99477 34186 ft 468 kts 271°
2026-05-01 11:57 36.42124 7.91286 34182 ft 465 kts 271°
2026-05-01 11:57 36.42417 7.82551 34178 ft 466 kts 271°
2026-05-01 11:58 36.42686 7.74364 34174 ft 465 kts 271°
2026-05-01 11:59 36.43078 7.62115 34171 ft 466 kts 271°
2026-05-01 11:59 36.43332 7.53959 34175 ft 468 kts 271°
2026-05-01 12:00 36.43702 7.41743 34178 ft 470 kts 271°
2026-05-01 12:01 36.44067 7.29278 34176 ft 469 kts 271°
2026-05-01 12:01 36.44308 7.20773 34183 ft 469 kts 270°
2026-05-01 12:02 36.44555 7.11859 34178 ft 468 kts 270°
2026-05-01 12:02 36.44786 7.03247 34184 ft 468 kts 270°
2026-05-01 12:03 36.45000 6.95117 34189 ft 470 kts 270°
2026-05-01 12:03 36.45220 6.86467 34184 ft 468 kts 270°
2026-05-01 12:04 36.45438 6.77668 34190 ft 469 kts 270°
2026-05-01 12:04 36.45638 6.69380 34191 ft 468 kts 270°
2026-05-01 12:05 36.45832 6.61080 34184 ft 469 kts 270°
2026-05-01 12:05 36.46116 6.48493 34177 ft 468 kts 270°
2026-05-01 12:06 36.46300 6.39943 34176 ft 473 kts 270°
2026-05-01 12:06 36.46479 6.31424 34175 ft 470 kts 269°
2026-05-01 12:07 36.46651 6.22852 34166 ft 472 kts 269°
2026-05-01 12:07 36.46814 6.14505 34157 ft 470 kts 269°
2026-05-01 12:08 36.46972 6.06139 34160 ft 472 kts 269°
2026-05-01 12:08 36.47123 5.97755 34151 ft 474 kts 269°
2026-05-01 12:09 36.47266 5.89553 34165 ft 472 kts 269°
2026-05-01 12:09 36.47407 5.81083 34166 ft 471 kts 269°
2026-05-01 12:10 36.47601 5.68679 34174 ft 474 kts 269°
2026-05-01 12:11 36.47777 5.56635 34194 ft 473 kts 269°
2026-05-01 12:11 36.47889 5.48484 34209 ft 472 kts 269°
2026-05-01 12:12 36.47996 5.40387 34209 ft 471 kts 269°
2026-05-01 12:12 36.48097 5.32244 34216 ft 471 kts 268°
2026-05-01 12:13 36.48194 5.23961 34214 ft 472 kts 268°
2026-05-01 12:13 36.48284 5.15803 34211 ft 472 kts 268°
2026-05-01 12:14 36.48368 5.07638 34211 ft 474 kts 268°
2026-05-01 12:14 36.48539 4.99426 34194 ft 474 kts 274°
2026-05-01 12:15 36.49504 4.91284 34195 ft 474 kts 276°
2026-05-01 12:15 36.50517 4.83165 34196 ft 474 kts 276°
2026-05-01 12:16 36.51521 4.75031 34186 ft 475 kts 276°
2026-05-01 12:16 36.52510 4.66954 34181 ft 473 kts 276°
2026-05-01 12:17 36.53500 4.58803 34177 ft 475 kts 276°
2026-05-01 12:17 36.54476 4.50726 34187 ft 476 kts 276°
2026-05-01 12:18 36.55454 4.42578 34178 ft 476 kts 276°
2026-05-01 12:18 36.56432 4.34372 34176 ft 477 kts 275°
2026-05-01 12:19 36.57399 4.26215 34175 ft 477 kts 275°
2026-05-01 12:19 36.58362 4.18043 34173 ft 475 kts 275°
2026-05-01 12:20 36.59319 4.09867 34169 ft 477 kts 275°
2026-05-01 12:20 36.60270 4.01701 34164 ft 475 kts 275°
2026-05-01 12:21 36.61209 3.93577 34149 ft 478 kts 275°
2026-05-01 12:21 36.62149 3.85403 34143 ft 475 kts 275°
2026-05-01 12:22 36.63080 3.77262 34133 ft 475 kts 275°
2026-05-01 12:22 36.63991 3.69236 34130 ft 475 kts 275°
2026-05-01 12:23 36.64832 3.61123 34127 ft 472 kts 270°
2026-05-01 12:23 36.64315 3.53067 34147 ft 469 kts 260°
2026-05-01 12:24 36.63301 3.45018 34144 ft 469 kts 259°
2026-05-01 12:24 36.62275 3.37001 34151 ft 468 kts 259°
2026-05-01 12:25 36.60726 3.25042 34166 ft 468 kts 259°
2026-05-01 12:26 36.59669 3.16996 34168 ft 468 kts 259°
2026-05-01 12:26 36.58085 3.05025 34161 ft 468 kts 259°
2026-05-01 12:27 36.56491 2.93017 34146 ft 467 kts 259°
2026-05-01 12:28 36.54888 2.81029 34137 ft 466 kts 260°
2026-05-01 12:29 36.53271 2.69039 34131 ft 465 kts 260°
2026-05-01 12:29 36.51644 2.57068 34132 ft 465 kts 261°
2026-05-01 12:30 36.50009 2.45131 34130 ft 466 kts 261°
2026-05-01 12:31 36.48911 2.37163 34136 ft 466 kts 261°
2026-05-01 12:31 36.47812 2.29229 34147 ft 466 kts 261°
2026-05-01 12:32 36.46708 2.21301 34149 ft 465 kts 261°
2026-05-01 12:32 36.45038 2.09383 34148 ft 465 kts 261°
2026-05-01 12:33 36.43926 2.01500 34148 ft 464 kts 261°
2026-05-01 12:33 36.42798 1.93544 34150 ft 465 kts 261°
2026-05-01 12:34 36.41668 1.85609 34149 ft 466 kts 261°
2026-05-01 12:34 36.40574 1.77967 34146 ft 465 kts 261°
2026-05-01 12:35 36.39427 1.69993 34146 ft 466 kts 261°
2026-05-01 12:35 36.38275 1.62026 34139 ft 466 kts 261°
2026-05-01 12:36 36.37114 1.54030 34143 ft 466 kts 261°
2026-05-01 12:36 36.35272 1.46287 34149 ft 469 kts 250°
2026-05-01 12:37 36.32768 1.38788 34148 ft 468 kts 249°
2026-05-01 12:37 36.30257 1.31319 34152 ft 468 kts 249°
2026-05-01 12:38 36.27730 1.23818 34151 ft 468 kts 249°
2026-05-01 12:38 36.25195 1.16315 34152 ft 467 kts 249°
2026-05-01 12:39 36.22667 1.08851 34150 ft 468 kts 249°
2026-05-01 12:39 36.20136 1.01399 34147 ft 468 kts 249°
2026-05-01 12:40 36.17598 0.93941 34144 ft 467 kts 249°
2026-05-01 12:40 36.15057 0.86494 34142 ft 466 kts 249°
2026-05-01 12:41 36.12519 0.79075 34141 ft 464 kts 249°
2026-05-01 12:41 36.09972 0.71647 34143 ft 464 kts 249°
2026-05-01 12:42 36.07431 0.64256 34137 ft 463 kts 249°
2026-05-01 12:42 36.04891 0.56885 34137 ft 462 kts 250°
2026-05-01 12:43 36.02344 0.49511 34130 ft 462 kts 250°
2026-05-01 12:43 35.99808 0.42186 34144 ft 461 kts 250°
2026-05-01 12:44 35.97272 0.34878 34141 ft 459 kts 249°
2026-05-01 12:45 35.92214 0.20266 34149 ft 457 kts 253°
2026-05-01 12:45 35.90988 0.12587 34160 ft 450 kts 270°
2026-05-01 12:46 35.91739 0.04951 34162 ft 445 kts 285°
2026-05-01 12:46 35.93417 -0.02461 34165 ft 444 kts 286°
2026-05-01 12:47 35.95077 -0.09813 34167 ft 443 kts 286°
2026-05-01 12:47 35.96719 -0.17161 34165 ft 443 kts 285°
2026-05-01 12:48 35.98349 -0.24502 34161 ft 441 kts 285°
2026-05-01 12:48 35.99977 -0.31871 34168 ft 442 kts 286°
2026-05-01 12:49 36.01595 -0.39226 34164 ft 441 kts 285°
2026-05-01 12:49 36.03198 -0.46540 34160 ft 438 kts 286°
2026-05-01 12:50 36.04793 -0.53841 34162 ft 439 kts 286°
2026-05-01 12:50 36.06387 -0.61160 34159 ft 438 kts 286°
2026-05-01 12:51 36.07972 -0.68460 34168 ft 439 kts 285°
2026-05-01 12:52 36.10341 -0.79421 34169 ft 438 kts 285°
2026-05-01 12:52 36.12509 -0.89495 34170 ft 438 kts 285°
2026-05-01 12:53 36.14826 -1.00315 34172 ft 437 kts 285°
2026-05-01 12:54 36.16388 -1.07637 34172 ft 436 kts 286°
2026-05-01 12:54 36.18711 -1.18570 34172 ft 436 kts 285°
2026-05-01 12:55 36.21020 -1.29492 34170 ft 435 kts 286°
2026-05-01 12:56 36.22552 -1.36768 34170 ft 435 kts 285°
2026-05-01 12:56 36.24065 -1.43979 34167 ft 433 kts 286°
2026-05-01 12:57 36.25580 -1.51220 34160 ft 433 kts 286°
2026-05-01 12:57 36.27841 -1.62069 34161 ft 432 kts 285°
2026-05-01 12:58 36.29342 -1.69301 34175 ft 432 kts 285°
2026-05-01 12:59 36.31564 -1.80140 34167 ft 433 kts 282°
2026-05-01 12:59 36.31923 -1.91324 34170 ft 433 kts 271°
2026-05-01 13:00 36.31574 -2.02547 34169 ft 433 kts 271°
2026-05-01 13:01 36.31213 -2.13786 34169 ft 435 kts 271°
2026-05-01 13:02 36.30841 -2.25049 34401 ft 433 kts 271°
2026-05-01 13:07 36.27988 -3.02701 35151 ft 424 kts 270°
2026-05-01 13:07 36.27842 -3.06346 35149 ft 426 kts 270°
2026-05-01 13:08 36.27545 -3.13652 35153 ft 425 kts 270°
2026-05-01 13:08 36.27244 -3.20976 35151 ft 427 kts 270°
2026-05-01 13:09 36.26937 -3.28319 35145 ft 427 kts 270°
2026-05-01 13:09 36.26626 -3.35643 35141 ft 426 kts 270°
2026-05-01 13:10 36.26311 -3.42964 35140 ft 427 kts 270°
2026-05-01 13:10 36.25990 -3.50322 35137 ft 426 kts 270°
2026-05-01 13:11 36.25666 -3.57640 35138 ft 426 kts 270°
2026-05-01 13:11 36.25341 -3.64892 35128 ft 426 kts 270°
2026-05-01 13:12 36.25015 -3.72075 35146 ft 428 kts 269°
2026-05-01 13:12 36.24683 -3.79289 35143 ft 426 kts 269°
2026-05-01 13:13 36.24345 -3.86530 35137 ft 427 kts 269°
2026-05-01 13:13 36.23996 -3.93918 35134 ft 427 kts 269°
2026-05-01 13:14 36.23641 -4.01328 35137 ft 425 kts 269°
2026-05-01 13:14 36.23284 -4.08699 35129 ft 428 kts 269°
2026-05-01 13:15 36.22920 -4.16097 35135 ft 426 kts 269°
2026-05-01 13:15 36.22555 -4.23438 35130 ft 425 kts 269°
2026-05-01 13:16 36.22187 -4.30739 35130 ft 424 kts 269°
2026-05-01 13:16 36.21814 -4.38069 35130 ft 426 kts 269°
2026-05-01 13:17 36.21056 -4.52678 35134 ft 424 kts 269°
2026-05-01 13:18 36.20473 -4.63688 35125 ft 426 kts 269°
2026-05-01 13:18 36.20081 -4.70991 35140 ft 426 kts 268°
2026-05-01 13:19 36.19683 -4.78324 35143 ft 427 kts 268°
2026-05-01 13:20 36.19075 -4.89348 35140 ft 426 kts 268°
2026-05-01 13:20 36.18665 -4.96692 35139 ft 425 kts 268°
2026-05-01 13:21 36.18043 -5.07675 35141 ft 426 kts 268°
2026-05-01 13:21 36.17623 -5.15004 35139 ft 426 kts 268°
2026-05-01 13:22 36.17195 -5.22386 35145 ft 427 kts 268°
2026-05-01 13:22 36.16763 -5.29745 35143 ft 425 kts 268°
2026-05-01 13:23 36.16330 -5.37068 35140 ft 425 kts 267°
2026-05-01 13:23 36.15889 -5.44433 35146 ft 426 kts 267°
2026-05-01 13:24 36.15446 -5.51759 35150 ft 425 kts 267°
2026-05-01 13:25 36.14771 -5.62793 35135 ft 426 kts 267°
2026-05-01 13:25 36.14319 -5.70083 35140 ft 425 kts 267°
2026-05-01 13:26 36.13859 -5.77438 35134 ft 426 kts 266°
2026-05-01 13:26 36.13470 -5.83595 35132 ft 427 kts 266°
2026-05-01 13:27 36.13204 -5.87773 35129 ft 427 kts 266°
2026-05-01 13:27 36.12688 -5.95818 35126 ft 426 kts 266°
2026-05-01 13:28 36.12176 -6.03735 35123 ft 426 kts 266°
2026-05-01 13:29 36.11213 -6.18384 35122 ft 428 kts 266°
2026-05-01 13:31 36.09752 -6.40120 35122 ft 427 kts 266°
2026-05-01 13:32 36.08468 -6.58767 35134 ft 427 kts 265°
2026-05-01 13:33 36.07161 -6.77319 35124 ft 426 kts 265°
2026-05-01 13:34 36.06105 -6.92025 35124 ft 429 kts 265°
2026-05-01 13:35 36.05374 -7.02059 35125 ft 434 kts 265°
2026-05-01 13:35 36.04799 -7.09879 34628 ft 430 kts 265°
2026-05-01 13:36 36.04515 -7.13712 34128 ft 423 kts 265°
2026-05-01 13:36 36.03690 -7.24780 34136 ft 441 kts 264°
2026-05-01 13:37 36.03125 -7.32273 34129 ft 439 kts 264°
2026-05-01 13:37 36.02570 -7.39768 34126 ft 439 kts 267°
2026-05-01 13:38 36.02456 -7.51093 34137 ft 439 kts 269°
2026-05-01 13:39 36.02383 -7.58628 34138 ft 441 kts 269°
2026-05-01 13:39 36.02291 -7.66283 34147 ft 439 kts 268°
2026-05-01 13:40 36.02187 -7.73977 34164 ft 442 kts 268°
2026-05-01 13:40 36.02075 -7.81633 34166 ft 441 kts 268°
2026-05-01 13:41 36.01958 -7.89217 34159 ft 439 kts 268°
2026-05-01 13:41 36.01832 -7.97003 34165 ft 439 kts 268°
2026-05-01 13:42 36.01702 -8.04684 34166 ft 440 kts 268°
2026-05-01 13:42 36.01568 -8.12278 34164 ft 439 kts 268°
2026-05-01 13:43 36.01425 -8.20131 34165 ft 441 kts 268°
2026-05-01 13:43 36.01279 -8.27906 34164 ft 439 kts 268°
2026-05-01 13:44 36.01126 -8.35714 34159 ft 439 kts 268°
2026-05-01 13:44 36.00970 -8.43471 34161 ft 440 kts 268°
2026-05-01 13:45 36.00811 -8.51100 34160 ft 438 kts 268°
2026-05-01 13:45 36.00650 -8.58599 34161 ft 440 kts 268°
2026-05-01 13:46 36.00484 -8.66120 34165 ft 439 kts 267°
2026-05-01 13:46 36.00314 -8.73633 34172 ft 439 kts 267°
2026-05-01 13:47 36.00140 -8.81112 34170 ft 437 kts 267°
2026-05-01 13:47 35.99960 -8.88622 34172 ft 438 kts 268°
2026-05-01 13:48 35.99776 -8.96130 34167 ft 436 kts 267°
2026-05-01 13:48 35.99587 -9.03632 34167 ft 436 kts 267°
2026-05-01 13:49 35.99394 -9.11082 34171 ft 436 kts 267°
2026-05-01 13:49 35.99194 -9.18666 34169 ft 437 kts 267°
2026-05-01 13:50 35.98992 -9.26139 34165 ft 436 kts 267°
2026-05-01 13:50 35.98786 -9.33594 34168 ft 437 kts 267°
2026-05-01 13:51 35.98575 -9.41047 34164 ft 436 kts 267°
2026-05-01 13:51 35.98360 -9.48492 34161 ft 437 kts 267°
2026-05-01 13:52 35.98139 -9.55971 34163 ft 436 kts 267°
2026-05-01 13:52 35.97914 -9.63419 34160 ft 437 kts 266°
2026-05-01 13:53 35.97684 -9.70900 34173 ft 437 kts 266°
2026-05-01 13:53 35.97330 -9.82104 34174 ft 437 kts 266°
2026-05-01 13:54 35.97090 -9.89554 34171 ft 436 kts 266°
2026-05-01 13:54 35.96844 -9.97015 34170 ft 438 kts 266°
2026-05-01 13:55 35.96628 -10.04530 34157 ft 438 kts 270°
2026-05-01 13:55 35.97006 -10.12045 34166 ft 439 kts 271°
2026-05-01 13:56 35.97395 -10.19591 34164 ft 437 kts 271°
2026-05-01 13:56 35.97751 -10.27074 34164 ft 439 kts 271°
2026-05-01 13:57 35.98035 -10.33309 34160 ft 437 kts 271°
2026-05-01 13:57 35.98418 -10.42031 34163 ft 438 kts 271°
2026-05-01 13:58 35.98737 -10.49497 34158 ft 438 kts 271°
2026-05-01 13:58 35.99052 -10.56991 34157 ft 437 kts 271°
2026-05-01 13:59 35.99359 -10.64459 34156 ft 438 kts 271°
2026-05-01 13:59 35.99662 -10.71934 34171 ft 438 kts 270°
2026-05-01 14:00 35.99962 -10.79468 34168 ft 439 kts 270°
2026-05-01 14:00 36.00256 -10.86941 34170 ft 439 kts 270°
2026-05-01 14:01 36.00545 -10.94432 34165 ft 438 kts 270°
2026-05-01 14:01 36.00830 -11.01924 34164 ft 438 kts 270°
2026-05-01 14:02 36.01111 -11.09468 34166 ft 439 kts 270°
2026-05-01 14:02 36.01386 -11.16958 34154 ft 439 kts 270°
2026-05-01 14:03 36.01656 -11.24455 34150 ft 440 kts 270°
2026-05-01 14:03 36.01922 -11.31948 34147 ft 439 kts 270°
2026-05-01 14:04 36.02184 -11.39457 34141 ft 438 kts 270°
2026-05-01 14:04 36.02397 -11.45669 34127 ft 437 kts 270°
2026-05-01 14:05 36.02690 -11.54389 34124 ft 438 kts 270°
2026-05-01 14:05 36.02938 -11.61890 34131 ft 439 kts 270°
2026-05-01 14:06 36.03180 -11.69376 34148 ft 438 kts 269°
2026-05-01 14:06 36.03417 -11.76852 34146 ft 438 kts 269°
2026-05-01 14:07 36.03650 -11.84335 34144 ft 438 kts 269°
2026-05-01 14:08 36.03991 -11.95592 34142 ft 438 kts 269°
2026-05-01 14:08 36.04212 -12.03083 34139 ft 440 kts 269°
2026-05-01 14:09 36.04429 -12.10571 34135 ft 438 kts 269°
2026-05-01 14:09 36.04642 -12.18083 34139 ft 438 kts 269°
2026-05-01 14:10 36.04848 -12.25548 34135 ft 437 kts 269°
2026-05-01 14:10 36.05050 -12.33015 34132 ft 437 kts 269°
2026-05-01 14:11 36.05248 -12.40498 34129 ft 437 kts 269°
2026-05-01 14:11 36.05535 -12.51678 34123 ft 436 kts 269°
2026-05-01 14:12 36.05782 -12.59128 34121 ft 437 kts 271°
2026-05-01 14:12 36.06254 -12.66603 34129 ft 438 kts 271°
2026-05-01 14:13 36.06637 -12.72790 34134 ft 436 kts 271°
2026-05-01 14:13 36.07160 -12.81524 34132 ft 436 kts 271°
2026-05-01 14:14 36.07597 -12.88963 34128 ft 436 kts 271°
2026-05-01 14:14 36.08028 -12.96424 34122 ft 435 kts 271°
2026-05-01 14:15 36.08452 -13.03849 34119 ft 435 kts 271°
2026-05-01 14:15 36.08872 -13.11299 34119 ft 435 kts 271°
2026-05-01 14:16 36.09285 -13.18724 34119 ft 436 kts 271°
2026-05-01 14:16 36.09694 -13.26157 34117 ft 436 kts 271°
2026-05-01 14:17 36.10098 -13.33587 34116 ft 436 kts 270°
2026-05-01 14:17 36.10501 -13.41075 34111 ft 436 kts 271°
2026-05-01 14:18 36.10897 -13.48514 34110 ft 436 kts 271°
2026-05-01 14:18 36.11224 -13.54751 34103 ft 437 kts 271°
2026-05-01 14:19 36.11675 -13.63421 34091 ft 435 kts 271°
2026-05-01 14:19 36.12056 -13.70858 34109 ft 435 kts 270°
2026-05-01 14:20 36.12619 -13.82001 34104 ft 435 kts 270°
2026-05-01 14:21 36.12990 -13.89471 34098 ft 436 kts 270°
2026-05-01 14:21 36.13357 -13.96940 34096 ft 436 kts 270°
2026-05-01 14:22 36.13896 -14.08088 34094 ft 435 kts 270°
2026-05-01 14:22 36.14250 -14.15549 34093 ft 436 kts 270°
2026-05-01 14:23 36.14599 -14.22973 34091 ft 434 kts 270°
2026-05-01 14:23 36.14942 -14.30389 34091 ft 435 kts 270°
2026-05-01 14:24 36.15281 -14.37818 34085 ft 433 kts 270°
2026-05-01 14:24 36.15616 -14.45245 34083 ft 432 kts 270°
2026-05-01 14:25 36.15943 -14.52610 34083 ft 432 kts 270°
2026-05-01 14:25 36.16266 -14.59995 34085 ft 432 kts 270°
2026-05-01 14:26 36.16743 -14.71086 34098 ft 433 kts 270°
2026-05-01 14:27 36.17056 -14.78463 34096 ft 429 kts 269°
2026-05-01 14:27 36.17362 -14.85812 34099 ft 429 kts 270°
2026-05-01 14:28 36.17814 -14.96885 34093 ft 429 kts 270°
2026-05-01 14:28 36.18109 -15.04241 34094 ft 428 kts 270°
2026-05-01 14:29 36.18399 -15.11563 34083 ft 428 kts 270°
2026-05-01 14:30 36.18965 -15.26250 34078 ft 427 kts 270°
2026-05-01 14:31 36.19386 -15.37235 34078 ft 426 kts 271°
2026-05-01 14:31 36.20684 -15.44436 34078 ft 431 kts 282°
2026-05-01 14:32 36.22413 -15.51531 34069 ft 432 kts 282°
2026-05-01 14:32 36.24121 -15.58609 34072 ft 432 kts 282°
2026-05-01 14:33 36.25826 -15.65724 34066 ft 430 kts 282°
2026-05-01 14:33 36.27529 -15.72871 34082 ft 430 kts 282°
2026-05-01 14:34 36.29245 -15.80103 34080 ft 429 kts 281°
2026-05-01 14:34 36.30963 -15.87369 34074 ft 428 kts 281°
2026-05-01 14:35 36.32718 -15.94823 34077 ft 429 kts 281°
2026-05-01 14:35 36.34454 -16.02212 34069 ft 429 kts 281°
2026-05-01 14:36 36.36172 -16.09551 34067 ft 430 kts 281°
2026-05-01 14:36 36.37874 -16.16838 34064 ft 428 kts 281°
2026-05-01 14:37 36.39562 -16.24094 34057 ft 429 kts 281°
2026-05-01 14:37 36.41227 -16.31269 34058 ft 429 kts 281°
2026-05-01 14:38 36.42879 -16.38410 34048 ft 428 kts 281°
2026-05-01 14:38 36.44554 -16.45674 34048 ft 428 kts 281°
2026-05-01 14:39 36.46257 -16.53079 34049 ft 427 kts 281°
2026-05-01 14:39 36.47937 -16.60412 34050 ft 427 kts 281°
2026-05-01 14:40 36.49573 -16.67573 34065 ft 427 kts 280°
2026-05-01 14:40 36.51209 -16.74752 34057 ft 428 kts 280°
2026-05-01 14:41 36.52860 -16.82024 34059 ft 426 kts 281°
2026-05-01 14:41 36.54492 -16.89235 34049 ft 427 kts 281°
2026-05-01 14:42 36.56139 -16.96529 34051 ft 425 kts 281°
2026-05-01 14:42 36.57814 -17.03977 34039 ft 427 kts 280°
2026-05-01 14:43 36.59473 -17.11373 34037 ft 426 kts 281°
2026-05-01 14:43 36.61061 -17.18477 34047 ft 428 kts 281°
2026-05-01 14:44 36.62649 -17.25603 34050 ft 427 kts 280°
2026-05-01 14:44 36.65028 -17.36316 34037 ft 428 kts 281°
2026-05-01 14:45 36.67384 -17.46977 34033 ft 427 kts 281°
2026-05-01 14:46 36.68946 -17.54074 34037 ft 428 kts 280°
2026-05-01 14:46 36.71289 -17.64761 34031 ft 428 kts 280°
2026-05-01 14:47 36.72847 -17.71894 34046 ft 429 kts 279°
2026-05-01 14:48 36.75182 -17.82628 34043 ft 430 kts 280°
2026-05-01 14:48 36.77504 -17.93351 34044 ft 429 kts 280°
2026-05-01 14:49 36.80595 -18.07705 34045 ft 429 kts 280°
2026-05-01 14:50 36.83655 -18.22008 34030 ft 430 kts 280°
2026-05-01 14:51 36.85949 -18.32787 34040 ft 429 kts 280°
2026-05-01 14:52 36.88232 -18.43571 34028 ft 431 kts 280°
2026-05-01 14:53 36.90503 -18.54349 34024 ft 430 kts 280°
2026-05-01 14:53 36.92018 -18.61572 34026 ft 431 kts 281°
2026-05-01 14:54 36.93525 -18.68773 34044 ft 431 kts 280°
2026-05-01 14:54 36.95030 -18.75993 34041 ft 432 kts 280°
2026-05-01 14:55 36.96536 -18.83243 34042 ft 432 kts 280°
2026-05-01 14:55 36.98035 -18.90480 34039 ft 431 kts 280°